Concord, CA

2:00 PM PST on November 21, 2017 (GMT -0800)
Buchanan

Weather History for KCCR - February, 2013

Change the Weather History Date:

Friday, February 8, 2013

  Actual Average Record
Temperature  
Mean Temperature 46 °F 51 °F  
Max Temperature 55 °F 60 °F 75 °F (2016)
Min Temperature 36 °F 42 °F 33 °F (2003)
Degree Days  
Heating Degree Days 19    
Month to date heating degree days 125  
Since 1 July heating degree days 1654  
Cooling Degree Days 0    
Month to date cooling degree days 0  
Year to date cooling degree days 0  
Moisture  
Dew Point 37 °F    
Average Humidity 70    
Maximum Humidity 92    
Minimum Humidity 47    
Precipitation  
Precipitation 0.00 in - 1.42 in (2015)
Month to date precipitation 0.08  
Year to date precipitation 0.48  
Since 1 July precipitation 10.12  
Sea Level Pressure  
Sea Level Pressure 29.95 in    
Wind  
Wind Speed 3 mph (WSW)    
Max Wind Speed 15 mph    
Max Gust Speed 18 mph    
Visibility 10 miles    
Events      
T = Trace of Precipitation, MM = Missing Value Source: NWS Daily Summary

Daily Weather History Graph

Daily Weather History Graph

Search for Another Location

Airport or City:

Trip Planner

Search our weather history database for the weather conditions in past years. The results will help you decide how hot, cold, wet, or windy it might be!

Date:

Astronomy

Feb. 08, 2013 Rise Set
Actual Time 7:05 AM PST 5:39 PM PST
Civil Twilight 6:38 AM PST 6:07 PM PST
Nautical Twilight 6:07 AM PST 6:38 PM PST
Astronomical Twilight 5:36 AM PST 7:08 PM PST
Moon 5:37 AM PST (2/8) 4:19 PM PST (2/8)
Length of Visible Light 11h 28m
Length of Day
10h 34m
Waning Crescent, 3% of the Moon is Illuminated
Feb 8
Waning Crescent
Feb 9
New
Feb 17
First Quarter
Feb 25
Full
Mar 4
Last Quarter

Hourly Weather History & Observations

Time (PST) Temp. Windchill Dew Point Humidity Pressure Visibility Wind Dir Wind Speed Gust Speed Precip Events Conditions
12:53 AM 41.0 °F 39.0 °F 37.9 °F 89% 29.96 in 10.0 mi SE 3.5 mph - N/A   Clear
1:10 AM 41.0 °F 39.0 °F 37.4 °F 87% 29.99 in 10.0 mi SE 3.5 mph - N/A   Mostly Cloudy
1:26 AM 41.0 °F 39.0 °F 37.4 °F 87% 29.99 in 10.0 mi SSE 3.5 mph - N/A   Scattered Clouds
1:33 AM 41.0 °F 38.0 °F 37.4 °F 87% 29.98 in 10.0 mi South 4.6 mph - N/A   Mostly Cloudy
1:53 AM 41.0 °F 38.0 °F 37.9 °F 89% 29.94 in 10.0 mi South 4.6 mph - N/A   Mostly Cloudy
2:53 AM 39.9 °F - 37.9 °F 93% 29.93 in 10.0 mi Calm Calm - N/A   Mostly Cloudy
3:10 AM 39.2 °F - 37.4 °F 93% 29.97 in 10.0 mi Calm Calm - N/A   Mostly Cloudy
3:44 AM 39.2 °F - 37.4 °F 93% 29.96 in 10.0 mi Calm Calm - N/A   Partly Cloudy
3:53 AM 39.9 °F - 37.9 °F 93% 29.92 in 10.0 mi Calm Calm - N/A   Scattered Clouds
4:02 AM 39.2 °F - 37.4 °F 93% 29.96 in 10.0 mi Calm Calm - N/A   Mostly Cloudy
4:12 AM 39.2 °F - 37.4 °F 93% 29.96 in 10.0 mi Calm Calm - N/A   Scattered Clouds
4:53 AM 39.9 °F - 37.9 °F 93% 29.92 in 10.0 mi Calm Calm - N/A   Mostly Cloudy
5:06 AM 39.2 °F - 37.4 °F 93% 29.96 in 10.0 mi Calm Calm - N/A   Overcast
5:43 AM 39.2 °F - 37.4 °F 93% 29.97 in 10.0 mi Calm Calm - N/A   Overcast
5:53 AM 39.9 °F - 37.9 °F 93% 29.94 in 10.0 mi Calm Calm - N/A   Overcast
6:53 AM 39.9 °F - 37.9 °F 93% 29.95 in 10.0 mi Calm Calm - N/A   Mostly Cloudy
7:24 AM 39.2 °F - 37.4 °F 93% 29.99 in 10.0 mi Calm Calm - N/A   Overcast
7:53 AM 42.1 °F - 39.0 °F 89% 29.96 in 10.0 mi Calm Calm - N/A   Mostly Cloudy
8:53 AM 42.1 °F 40.2 °F 37.9 °F 85% 29.98 in 10.0 mi NW 3.5 mph - N/A   Mostly Cloudy
9:53 AM 46.0 °F 44.8 °F 37.0 °F 71% 29.98 in 10.0 mi NW 3.5 mph - N/A   Mostly Cloudy
10:53 AM 48.0 °F - 37.0 °F 66% 29.99 in 10.0 mi NW 4.6 mph - N/A   Mostly Cloudy
11:53 AM 50.0 °F - 37.0 °F 61% 29.97 in 10.0 mi North 3.5 mph - N/A   Mostly Cloudy
12:53 PM 52.0 °F - 37.0 °F 57% 29.94 in 10.0 mi NW 6.9 mph - N/A   Scattered Clouds
1:53 PM 52.0 °F - 36.0 °F 54% 29.92 in 10.0 mi NNW 6.9 mph - N/A   Partly Cloudy
2:53 PM 55.0 °F - 36.0 °F 49% 29.91 in 10.0 mi WSW 9.2 mph - N/A   Clear
3:53 PM 54.0 °F - 37.0 °F 53% 29.91 in 10.0 mi WSW 9.2 mph - N/A   Clear
4:53 PM 53.1 °F - 37.9 °F 57% 29.91 in 10.0 mi West 9.2 mph - N/A   Partly Cloudy
5:53 PM 50.0 °F - 36.0 °F 59% 29.92 in 10.0 mi WNW 3.5 mph - N/A   Clear
6:53 PM 48.9 °F - 35.1 °F 59% 29.93 in 10.0 mi Calm Calm - N/A   Clear
7:53 PM 45.0 °F 43.5 °F 35.1 °F 68% 29.94 in 10.0 mi SSE 3.5 mph - N/A   Clear
8:53 PM 42.1 °F 40.2 °F 36.0 °F 79% 29.94 in 10.0 mi SE 3.5 mph - N/A   Clear
9:53 PM 39.0 °F - 34.0 °F 82% 29.95 in 10.0 mi Calm Calm - N/A   Clear
10:53 PM 39.0 °F - 33.1 °F 79% 29.95 in 10.0 mi Calm Calm - N/A   Clear
11:53 PM 37.0 °F - 30.9 °F 79% 29.96 in 9.0 mi Calm Calm - N/A   Clear